Preview of NWS' New Version of Forecast
This preview is not operational and should not be used for support decisions.
Latest weather observations around

Cloquet Carlton County Airport (KCOQ)

Using English Units (Switch to International System of Units)
Date/ Time (CST) Wind (mph) Vis. (mi) Weather Sky Cond. Temp (°F) Rel. Humidity Wind Chill (°F) Heat Index (°F) Pressure Precip. (in)
Air Dwpt 6 hour Altimeter (inHg) Sea level (inHg) 1 hr 3 hr 6 hr
Max Min
Jan 19 01:21 NW 9 10 Clear CLR -11 -20     63% -29   30.38        
Jan 19 01:15 NNW 9 10 Clear CLR -9 -20     58% -27   30.38        
Jan 19 00:56 NNW 8 10 Clear CLR -9 -20     58% -26   30.38        
Jan 19 00:55 NNW 7 10 Clear CLR -9 -20     58% -24   30.38        
Jan 19 00:35 NNW 9 10 Clear CLR -9 -20     58% -27   30.38        
Jan 19 00:15 NNW 11 10 Clear CLR -9 -20     58% -29   30.38        
Jan 18 23:56 NNW 10 10 Clear CLR -9 -20     58% -28   30.39        
Jan 18 23:55 NNW 9 10 Clear CLR -9 -20     58% -27   30.39        
Jan 18 23:35 NNW 10 10 Clear CLR -9 -20     58% -28   30.39        
Jan 18 23:16 N 8 10 Clear CLR -8 -20     53% -23   30.39        
Jan 18 23:15 N 8 10 Clear CLR -8 -20     53% -23   30.39        
Jan 18 22:56 NNW 11 10 Clear CLR -8 -20     53% -27   30.38        
Jan 18 22:55 NNW 13 10 Clear CLR -8 -20     53% -28   30.38        
Jan 18 22:35 NNW 9 10 Partly Cloudy SCT120 -8 -20     53% -25   30.39        
Jan 18 22:16 N 9 10 Partly Cloudy SCT023 -8 -20     53% -25   30.39        
Jan 18 22:15 N 8 10 Partly Cloudy SCT023 -8 -20     53% -23   30.39        
Jan 18 21:56 N 5 10 Partly Cloudy SCT021 SCT110 -8 -20     53% -19   30.38        
Jan 18 21:55 N 6 10 Partly Cloudy SCT021 SCT110 -8 -20     53% -21   30.38        
Jan 18 21:35 N 9 10 Mostly Cloudy BKN021 BKN110 -8 -20     53% -25   30.37        
Jan 18 21:16 N 10 10 Partly Cloudy SCT110 -6 -20     49% -23   30.37        
Jan 18 21:15 N 10 10 Partly Cloudy SCT110 -6 -20     49% -23   30.37        
Jan 18 20:56 N 9 10 Clear CLR -6 -20     49% -22   30.36        
Jan 18 20:55 N 9 10 Clear CLR -6 -20     49% -22   30.36        
Jan 18 20:35 N 7 10 Clear CLR -6 -20     49% -20   30.36        
Jan 18 20:16 NNW 13 10 Partly Cloudy SCT120 -6 -18     53% -25   30.36        
Jan 18 20:15 NNW 11 10 Clear CLR -6 -18     53% -24   30.36        
Jan 18 19:55 NNW 11 10 Partly Cloudy SCT120 -6 -18     53% -24   30.35        
Jan 18 19:35 NNW 11 10 Partly Cloudy SCT120 -4 -18     49% -22   30.35        
Jan 18 19:16 NNW 10 10 Mostly Cloudy BKN120 -4 -18     49% -21   30.35        
Jan 18 19:15 NNW 10 10 Partly Cloudy SCT120 -4 -18     49% -21   30.35        
Jan 18 18:55 NNW 10 10 Partly Cloudy SCT120 -4 -18     49% -21   30.35        
Jan 18 18:35 NNW 7 10 Mostly Cloudy BKN120 -2 -17     49% -16   30.34        
Jan 18 18:16 N 5 10 Partly Cloudy SCT120 -2 -17     49% -13   30.33        
Jan 18 18:15 N 6 10 Partly Cloudy SCT120 -2 -17     49% -14   30.33        
Jan 18 17:55 N 6 10 Clear CLR -2 -17     49% -14   30.32        
Jan 18 17:36 N 7 10 Clear CLR -2 -17     49% -16   30.32        
Jan 18 17:35 N 6 10 Clear CLR -2 -17     49% -14   30.31        
Jan 18 17:15 NNW 7 10 Clear CLR -2 -17     49% -16   30.3        
Jan 18 16:55 N 5 10 Partly Cloudy SCT120 -2 -17     49% -13   30.3        
Jan 18 16:36 N 6 10 Partly Cloudy SCT120 -2 -17     49% -14   30.29        
Jan 18 16:35 N 6 10 Partly Cloudy SCT120 -2 -17     49% -14   30.29        
Jan 18 16:15 N 7 10 Clear CLR -2 -18     45% -16   30.29        
Jan 18 15:56 N 7 10 Clear CLR 0 -18     41% -13   30.28        
Jan 18 15:55 N 7 10 Clear CLR 0 -17     45% -13   30.28        
Jan 18 15:36 N 7 10 Partly Cloudy SCT110 0 -17     45% -13   30.28        
Jan 18 15:35 N 8 10 Partly Cloudy SCT110 0 -17     45% -15   30.28        
Jan 18 15:15 N 7 10 Clear CLR 0 -17     45% -13   30.28        
Jan 18 14:56 N 7 10 Clear CLR -2 -17     49% -16   30.29        
Jan 18 14:55 N 8 10 Clear CLR -2 -17     49% -17   30.29        
Jan 18 14:36 N 6 10 Clear CLR -2 -17     49% -14   30.29        
Jan 18 14:35 NNW 7 10 Clear CLR -2 -17     49% -16   30.3        
Jan 18 14:15 N 5 10 Clear CLR -2 -17     49% -13   30.29        
Jan 18 13:56 N 5 10 Clear CLR -2 -18     45% -13   30.29        
Jan 18 13:55 N 3 10 Clear CLR -2 -18     45% -10   30.29        
Jan 18 13:36 N 3 10 Clear CLR -2 -17     49% -10   30.29        
Jan 18 13:35 NNE 3 10 Clear CLR -2 -17     49% -10   30.29        
Jan 18 13:15 N 3 10 Clear CLR -2 -17     49% -10   30.3        
Jan 18 12:56 NNW 5 10 Clear CLR -2 -17     49% -13   30.3        
Jan 18 12:55 NNW 5 10 Clear CLR -2 -17     49% -13   30.3        
Jan 18 12:35 NNE 5 10 Clear CLR -4 -17     54% -15   30.3        
Jan 18 12:15 N 5 10 Clear CLR -6 -17     59% -17   30.3        
Jan 18 11:56 N 3 10 Clear CLR -6 -17     59% -14   30.3        
Jan 18 11:55 N 5 10 Clear CLR -6 -17     59% -17   30.3        
Jan 18 11:35 NNW 8 10 Clear CLR -6 -17     59% -21   30.3        
Jan 18 11:16 N 7 10 Clear CLR -6 -18     53% -20   30.3        
Jan 18 11:15 N 6 10 Clear CLR -6 -17     59% -19   30.3        
Jan 18 10:56 N 5 10 Clear CLR -8 -18     58% -19   30.31        
Jan 18 10:55 N 5 10 Clear CLR -8 -18     58% -19   30.31        
Jan 18 10:35 N 6 10 Clear CLR -8 -18     58% -21   30.3        
Jan 18 10:16 N 8 10 Clear CLR -8 -18     58% -23   30.3        
Jan 18 10:15 N 8 10 Clear CLR -8 -18     58% -23   30.3        
Jan 18 09:56 N 6 10 Clear CLR -8 -18     58% -21   30.29        
Jan 18 09:55 N 6 10 Clear CLR -8 -18     58% -21   30.29        
Jan 18 09:35 N 5 10 Clear CLR -8 -18     58% -19   30.28        
Jan 18 09:16 N 6 10 Clear CLR -8 -17     64% -21   30.27        
Jan 18 09:15 N 7 10 Clear CLR -9 -17     70% -24   30.27        
Jan 18 08:55 NNW 9 10 Clear CLR -9 -17     70% -27   30.26        
Jan 18 08:35 NNW 6 10 Clear CLR -9 -17     70% -23   30.25        
Jan 18 08:16 NW 8 10 Clear CLR -9 -17     70% -26   30.25        
Jan 18 07:55 NNW 13 10 Clear CLR -9 -17     70% -30   30.23        
Jan 18 07:36 NW 10 10 Clear CLR -8 -17     64% -26   30.23        
Jan 18 07:35 NW 9 10 Clear CLR -8 -17     64% -25   30.23        
Jan 18 07:15 NNW 11 10 Clear CLR -8 -15     70% -27   30.21        
Jan 18 06:55 NNW 11 10 Clear CLR -8 -15     70% -27   30.19        
Jan 18 06:36 NNW 13 10 Clear CLR -8 -15     70% -28   30.18        
Jan 18 06:35 NNW 11 10 Clear CLR -8 -15     70% -27   30.18        
Jan 18 06:15 NW 10 10 Clear CLR -8 -15     70% -26   30.17        
Jan 18 05:56 NW 8 10 Clear CLR -8 -15     70% -23   30.18        
Jan 18 05:55 NW 8 10 Clear CLR -8 -13     77% -23   30.18        
Jan 18 05:36 NW 6 10 Clear CLR -8 -13     77% -21   30.17        
Jan 18 05:35 NW 6 10 Clear CLR -8 -13     77% -21   30.17        
Jan 18 05:15 NW 9 10 Clear CLR -6 -13     70% -22   30.17        
Jan 18 04:56 NNW 10 10 Clear CLR -6 -13     70% -23   30.14        
Jan 18 04:55 NNW 10 10 Clear CLR -6 -13     70% -23   30.14        
Jan 18 04:36 NNW 11 10 Clear CLR -6 -11     77% -24   30.14        
Jan 18 04:35 NNW 11 10 Clear CLR -6 -11     77% -24   30.14        
Jan 18 04:15 NNW 14 10 Clear CLR -6 -11     77% -26   30.14        
Jan 18 03:56 NW 13 10 Clear CLR -6 -11     77% -25   30.15        
Jan 18 03:55 NW 14 10 Clear CLR -6 -11     77% -26   30.15        
May 15 12:55 ESE 10 5 Haze CLR 57 28     33%     30.09        
May 15 10:15 ESE 9 5 Haze CLR 54 30     41%     30.1        
May 15 04:15 NW 3 10 Clear   48 25     40% 47   30.03        
May 15 01:15 N 11 10 Clear CLR 59 25     27%     29.95        
May 15 00:15 N 6 10 Clear CLR 61 27     27%     29.93        
May 14 22:55 NNW 7 10 Clear CLR 63 30     29%     29.9        
May 14 20:35 WNW 3 10 Clear CLR 68 48     49%              
May 14 20:15 W 6 10 Clear CLR 70 48     46%     29.84        
Notice The following observation data may not be complete
May 14 18:35   10 Mostly Cloudy BKN100          %              
May 14 12:15 W 8 10 Partly Cloudy SCT065 77 41     28%   76 29.86        
May 14 05:55 W 6 10 Clear CLR 55 41     58%     29.87        
May 13 17:15 W 14 10 Clear CLR 73        %     29.88        
May 13 12:55 W 7 10 Clear CLR 68        %     29.96        
May 13 07:55 W 3 10 Clear CLR 48 30     50% 47   30.04        
Notice The following observation data may not be complete
May 13 04:35   10 Clear CLR          %              
May 13 03:35 Calm 10 Clear CLR 30 25     80%     30.05        
May 12 17:35 ESE 5 10 Clear CLR 59 18     20%     30.11        
May 12 13:35 ESE 8 10 Clear CLR 61        %     30.13        
May 12 08:35 E 5 10 Clear CLR 45 21     39% 42   30.17        
May 12 07:55 Calm 10 Clear CLR 39 25     56%     30.16        
May 12 07:15 Calm 10 Clear CLR 34 23     64%     30.16        
May 12 02:55 Calm 10 Clear CLR 28 19     69%     30.12        
May 11 22:55 Calm 10 Clear CLR 36 14     41%     30.11        
May 11 20:15 E 7 10 Clear CLR 43        % 39   30.07        
May 11 18:55 ESE 9 10 Clear CLR 46        % 42   30.07        
May 11 13:15 E 11 10 Clear CLR 52 16     24%     30.08        
May 11 09:35 E 8 10 Clear CLR 45 25     45% 40   30.12        
Jun 12 05:55 Calm 0.5 Fog VV005 55 52     88%     29.86        
Jun 12 01:55 Calm 7 Clear CLR 57 55     94%     29.8        
Jun 11 22:15 Calm 10 Clear CLR 57 55     94%     29.75        
Jun 11 21:35 Calm 7 Clear CLR 61 55     82%     29.74        
Notice The following observation data may not be complete
Jun 11 20:14   10 Clear CLR          %              
Jun 11 18:15 SE 6 10 Cloudy OVC023 64 57     77%     29.72        
Jun 11 14:15 SSW 3 10 Clear CLR 63 54     72%     29.75        
Jun 10 23:35 W 6 10 Clear CLR 66 52     60%     29.66        
Jun 10 21:55 W 7 10 Clear CLR 72 54     53%   71          
Jun 10 19:35 W 10 10 Clear CLR 81 54     39%   80 29.51        
Notice The following observation data may not be complete
Jun 10 19:15   10 Clear CLR          %              
Jun 10 17:55   10 Clear CLR 84 57     40%   83 29.45        
Jun 10 16:35 WSW 23 10 Partly Cloudy and Windy SCT050 SCT055 88 61     40%   88 29.4        
Jun 10 11:55 SSW 21 10 Clear and Windy CLR 84 61     45%   84 29.37        
Jun 09 22:15 E 8 10 Clear CLR 54 46     77%     29.68        
Jun 09 20:35 E 8 10 Clear CLR 57 48     72%     29.7        
Jun 09 13:55 ESE 8 10 Clear CLR 72 55     57%   71 29.82        
Notice The following observation data may not be complete
Jun 09 10:34   10 Clear CLR          %              
Jun 09 08:55 E 8 10 Clear CLR 63 55     77%     29.89        
Jun 08 23:15 E 5 10 Clear CLR 57 50     77%     29.88        
Jun 08 21:55 Calm 10 Mostly Cloudy BKN090 61 48     63%     29.88        
Jun 08 21:15 Calm 10 Partly Cloudy SCT080 63 48     59%     29.87        
Jun 08 14:35 NNW 11 10 Cloudy BKN050 BKN060 OVC080 75 54     47%   75 29.87        
Jun 08 11:14 NNW 10 10 Clear CLR 73 54     50%   73 29.89        
Jun 08 10:35 NNW 10 10 Partly Cloudy SCT037 72 54     53%   71 29.89        
Jun 07 21:35 SSW 3 10 Light Rain SCT120 66 50     56%     29.98        
Jun 07 13:55 S 7 10 Clear CLR 79 43     28%   78 30.04        
Jun 07 11:55 S 10 10 Clear CLR 75 43     31%   74 30.09        
Jun 07 11:35 SSE 9 7 Clear CLR 73 45     36%   72 30.09        
Jun 06 13:55 SE 3 10 Clear CLR 73 37     27%   72 30.13        
Jun 06 11:35 SSW 7 10 Clear CLR 70 30     23%     30.16        
Jun 06 05:55 Calm 10 Clear CLR 39 36     87%     30.15        
Jun 06 05:35 Calm 10 Clear CLR 41 36     81%     30.14        
Jun 06 01:35 Calm 10 Clear CLR 43 37     81%     30.12        
Jun 05 21:55 E 3 10 Clear CLR 55 36     47%     30.1        
Notice The following observation data may not be complete
Jun 05 20:15   10 Clear CLR          %